Regional Weather Roundup
Issued by NWS

Home | Current Version | Previous Version | Graphics & Text | Print | Product List | Glossary On
Versions: 1 2 3 4 5 6 7 8 9 10 11 12 13 14 15 16 17 18 19 20 21 22 23 24 25 26 27 28 29 30 31 32 33 34 35 36 37 38 39 40 41 42 43 44 45 46 47 48 49
000
ASUS45 KSLC 271710
RWRUT

UTAH REGIONAL WEATHER ROUNDUP
NATIONAL WEATHER SERVICE SALT LAKE CITY UT
1100 AM MDT FRI MAR 27 2015

UTZ001>011-023>025-271800-

NORTHERN UTAH

CITY           SKY/WX    TMP DP  RH WIND       PRES   REMARKS
BRIGHAM CITY   SUNNY     52  33  48 CALM      30.35S
HILL AFB       SUNNY     56  31  38 E6        30.34S
LOGAN          SUNNY     49  35  58 CALM      30.34F
OGDEN          SUNNY     56  31  38 NE6       30.33S
PROVO AIRPORT  SUNNY     52  30  43 VRB3      30.36S
SALT LAKE CITY SUNNY     56  31  38 E3        30.33F
VERNAL         SUNNY     55  28  35 VRB5      30.32S
WENDOVER       SUNNY     52  27  37 E7        30.33S
HEBER CITY     SUNNY     46  28  49 CALM      30.36F
WEST JORDAN    SUNNY     55  34  44 SE6       30.34S

$$

UTZ012>022-026-027-271800-

SOUTHERN/CENTRAL UTAH

CITY           SKY/WX    TMP DP  RH WIND       PRES   REMARKS
BLANDING       SUNNY     57  22  25 SE3       30.41S
BRYCE CANYON   SUNNY     56  24  29 VRB5      30.41S
CEDAR CITY     SUNNY     55  25  31 NE5       30.33S
DELTA          SUNNY     55  27  33 CALM      30.34R
HANKSVILLE     SUNNY     57  23  26 CALM      30.33S
MILFORD        SUNNY     55  26  32 VRB3      30.33F
MOAB/CYNLANDS  SUNNY     58  19  22 E6        30.28F
PRICE          SUNNY     58  26  29 VRB5      30.31F
ST GEORGE      SUNNY     61  28  29 W3        30.29S
KANAB          SUNNY     59  27  29 CALM      30.35S

$$

REGIONAL REPORTS     COLORADO/ARIZONA

CITY           SKY/WX    TMP DP  RH WIND       PRES   REMARKS
CRAIG, CO      SUNNY     52  32  46 N6        30.34F
GRAND JUNCTION SUNNY     56  24  29 SE10      30.31F
RIFLE          SUNNY     51  27  39 CALM      30.34F
MONTROSE       SUNNY     55  23  28 CALM      30.35F
CORTEZ         SUNNY     59  22  24 CALM      30.33F
PAGE, AZ       SUNNY     59  23  25 N6        30.31R
GRAND CANYON   SUNNY     63  17  17 CALM      30.38R
KINGMAN        SUNNY     70  24  17 VRB3      30.23R
FLAGSTAFF      SUNNY     60  16  18 E6        30.40R

$$

REGIONAL REPORTS    NEVADA/IDAHO/WYOMING

CITY           SKY/WX    TMP DP  RH WIND       PRES   REMARKS
LAS VEGAS, NV  SUNNY     72  26  18 S5        30.17R
ELY            SUNNY     59  23  25 S3        30.35S
ELKO           SUNNY     53  32  44 CALM      30.31F
POCATELLO, ID  SUNNY     57  35  43 CALM      30.30F
BURLEY         SUNNY     58  37  45 N3        30.25F
EVANSTON, WY   MOSUNNY   51  29  42 W8        30.38R
ROCK SPRINGS   SUNNY     52  30  43 W13       30.32F
KEMMERER       SUNNY     48  32  53 W10       30.36S

$$


USA.gov is the U.S. government's official web portal to all federal, state and local government web resources and services.